Regional Weather Roundup
Issued by NWS Midland/Odessa, TX

Skip options and go directly to product.
Home | Oldest Version | Previous Version | Current Version | All | Graphics & Text | Save Text | Print | Product List | Glossary On

Skip product version selection by date and time.   
830
ASUS44 KMAF 310601
RWRMAF
MIDLAND AREA WEATHER ROUNDUP
NATIONAL WEATHER SERVICE MIDLAND TX
100 AM CDT WED AUG 31 2016

...IN SOUTHWEST TEXAS AND SOUTHEAST NEW MEXICO...

CITY           SKY/WX    TMP DP  RH WIND       PRES   REMARKS
ALPINE         CLOUDY    65  64  96 E5        30.28S
ANDREWS        DRIZZLE   67  67 100 NE9       30.19S
ARTESIA        MOCLDY    68  68 100 N6        30.22S
BIG SPRING     CLOUDY    73  68  86 N8        30.17R
CARLSBAD       CLOUDY    68  65  90 N6        30.18F
DRYDEN           N/A     73  72  96 N3        30.08F
FORT STOCKTON  MOCLDY    69  67  93 SW5       30.15S
GUAD PASS      FOG       62  62 100 NE22      30.29R VSB 1/4
HOBBS          MOCLDY    66  66 100 NE8G16    30.22S
MARFA          CLOUDY   N/A N/A N/A NE7       30.25R
MIDLAND AIRPK  CLOUDY    72  67  87 N6        30.16S
MIDLAND INTL   CLOUDY    70  67  90 N9        30.15S
ODESSA         PTCLDY    70  68  93 N6        30.17S
PECOS          RAIN      70  68  93 N6        30.13F
PRESIDIO       NOT AVBL
SEMINOLE       CLOUDY    67  65  96 NE7       30.21R
SNYDER           N/A     71  69  90 N6        30.16S
WINK           CLOUDY    70  66  87 NE7       30.14R
$$
...OTHER STATIONS IN TEXAS...

CITY           SKY/WX    TMP DP  RH WIND       PRES   REMARKS
ABILENE        PTCLDY    75  67  76 CALM      30.10S
AMARILLO       CLOUDY    65  64  97 CALM      30.25R FOG
AUSTIN         MOCLDY    75  73  93 CALM      29.99S
BROWNSVILLE    MOCLDY    82  77  84 E8        29.88F
CORPUS CHRISTI MOCLDY    78  75  90 N6        29.93S
DALLAS FTW     PTCLDY    81  71  71 NE5       30.00S
DEL RIO        CLOUDY    75  73  93 CALM      30.02S
EL PASO        CLOUDY    70  64  81 E3        30.18R
HOUSTON INT    MOCLDY    80  74  81 W3        29.94S
LUBBOCK        MOCLDY    66  65  96 N6        30.21S
SAN ANGELO     CLOUDY    77  67  71 NE9       30.09R
SAN ANTONIO    LGT RAIN  74  70  87 N5        30.01S
WACO           CLEAR     77  74  90 N3        30.00S
WICHITA FALLS  NOT AVBL
$$
...OTHER LOCATIONS IN NEW MEXICO...

CITY           SKY/WX    TMP DP  RH WIND       PRES   REMARKS
ALAMAGORDO     MOCLDY    72  57  60 N6        30.19S
ALBUQUERQUE    PTCLDY    66  55  67 E14       30.29R
CANNON AFB     NOT AVBL
CLOVIS         CLOUDY    64  61  88 E3        30.27S
HOLLOMAN AFB   CLOUDY    71  58  63 W6        30.17R
ROSWELL        CLOUDY    68  64  87 NW3       30.22S
RUIDOSO          N/A     57  55  94 SE6       30.40F
SANTA FE       CLOUDY    59  53  80 SE10      30.36R
TRUTH OR CONSE MOCLDY    71  54  54 NE7       30.23R
TUCUMCARI      CLOUDY    66  65  96 NW6       30.26S
$$

USA.gov is the U.S. government's official web portal to all federal, state and local government web resources and services.